Main page
Satellite images Climate Cyclones Lightning AirportsFAQ Languages Contact Newsletter About
Weather : Europe Africa North America South America Asia Australia-Oceania Others

hat-yai-th, Hat Yai, Hat Yai International Airport

48568

latitude: , longitude: Thailand, elevation: 06-55N m


METAR: VTSS 250400Z 08006KT 050V190 9999 FEW020 35/20 Q1009 NOSIG